Weather History for KSEE - May, 2014

Change the Weather History Date:

Friday, May 2, 2014

  Actual Average Record
Temperature  
Mean Temperature 76 °F -  
Max Temperature 100 °F 73 °F 100 °F (2014)
Min Temperature 51 °F 52 °F 47 °F (1983)
Cooling Degree Days 10    
Growing Degree Days 26 (Base 50)    
Moisture  
Dew Point 24 °F    
Average Humidity 20    
Maximum Humidity 44    
Minimum Humidity 4    
Precipitation  
Precipitation 0.00 in - - ()
Sea Level Pressure  
Sea Level Pressure 29.97 in    
Wind  
Wind Speed 2 mph (West)    
Max Wind Speed 17 mph    
Max Gust Speed 20 mph    
Visibility 10 miles    
Events      
Averages and records for this station are not official NWS values.
T = Trace of Precipitation, MM = Missing Value Source: NWS Daily Summary

Daily Weather History Graph

Daily Weather History Graph

Search for Another Location

Airport or City:

Trip Planner

Search our weather history database for the weather conditions in past years. The results will help you decide how hot, cold, wet, or windy it might be!

Date:

Astronomy

May. 02, 2014 Rise Set
Actual Time 5:59 AM PDT 7:30 PM PDT
Civil Twilight 5:33 AM PDT 7:56 PM PDT
Nautical Twilight 5:01 AM PDT 8:28 PM PDT
Astronomical Twilight 4:28 AM PDT 9:01 PM PDT
Moon 8:44 AM PDT (5/2) 10:53 PM PDT (5/2)
Length of Visible Light 14h 23m
Length of Day
13h 30m
Waxing Crescent, 13% of the Moon is Illuminated
May 2
Waxing Crescent
May 6
First Quarter
May 14
Full
May 21
Last Quarter
May 28
New

Hourly Weather History & Observations

Time (PDT) Temp. Dew Point Humidity Pressure Visibility Wind Dir Wind Speed Gust Speed Precip Events Conditions
12:15 AM 62.6 °F 30.2 °F 30% 30.02 in 10.0 mi Calm Calm - N/A   Clear
12:35 AM 62.6 °F 30.2 °F 30% 30.02 in 10.0 mi Calm Calm - N/A   Clear
12:55 AM 60.8 °F 30.2 °F 31% 30.02 in 10.0 mi Calm Calm - N/A   Clear
1:15 AM 59.0 °F 30.2 °F 34% 30.01 in 10.0 mi Calm Calm - N/A   Clear
1:35 AM 59.0 °F 30.2 °F 34% 30.00 in 10.0 mi Calm Calm - N/A   Clear
1:55 AM 57.2 °F 30.2 °F 36% 30.00 in 10.0 mi Calm Calm - N/A   Clear
2:15 AM 57.2 °F 30.2 °F 36% 30.00 in 10.0 mi Calm Calm - N/A   Clear
2:35 AM 57.2 °F 30.2 °F 36% 29.99 in 10.0 mi Calm Calm - N/A   Clear
2:55 AM 55.4 °F 30.2 °F 38% 29.99 in 10.0 mi Calm Calm - N/A   Clear
3:15 AM 55.4 °F 30.2 °F 38% 29.99 in 10.0 mi Calm Calm - N/A   Clear
3:35 AM 55.4 °F 30.2 °F 38% 29.99 in 10.0 mi Calm Calm - N/A   Clear
3:55 AM 55.4 °F 30.2 °F 38% 29.99 in 10.0 mi Calm Calm - N/A   Clear
4:15 AM 53.6 °F 32.0 °F 44% 29.99 in 10.0 mi Calm Calm - N/A   Clear
4:35 AM 53.6 °F 32.0 °F 44% 29.99 in 10.0 mi Calm Calm - N/A   Clear
4:55 AM 53.6 °F 32.0 °F 44% 29.99 in 10.0 mi Calm Calm - N/A   Clear
5:15 AM 53.6 °F 32.0 °F 44% 29.99 in 10.0 mi Calm Calm - N/A   Clear
5:35 AM 53.6 °F 30.2 °F 41% 29.99 in 10.0 mi Calm Calm - N/A   Clear
5:55 AM 53.6 °F 32.0 °F 44% 29.99 in 10.0 mi Calm Calm - N/A   Clear
6:15 AM 51.8 °F 30.2 °F 44% 29.99 in 10.0 mi Calm Calm - N/A   Clear
6:35 AM 53.6 °F 32.0 °F 44% 30.00 in 8.0 mi Calm Calm - N/A   Clear
6:55 AM 55.4 °F 32.0 °F 41% 30.00 in 10.0 mi Calm Calm - N/A   Clear
7:15 AM 57.2 °F 32.0 °F 38% 30.01 in 10.0 mi Calm Calm - N/A   Clear
7:35 AM 62.6 °F 32.0 °F 32% 30.01 in 10.0 mi Calm Calm - N/A   Clear
7:55 AM 64.4 °F 32.0 °F 30% 30.01 in 10.0 mi Calm Calm - N/A   Clear
8:15 AM 66.2 °F 32.0 °F 28% 30.01 in 10.0 mi Calm Calm - N/A   Clear
8:35 AM 69.8 °F 32.0 °F 25% 30.01 in 10.0 mi Calm Calm - N/A   Clear
8:55 AM 73.4 °F 32.0 °F 22% 30.01 in 10.0 mi Calm Calm - N/A   Clear
9:15 AM 78.8 °F 30.2 °F 17% 30.01 in 10.0 mi Calm Calm - N/A   Clear
9:35 AM 80.6 °F 30.2 °F 16% 30.00 in 10.0 mi Calm Calm - N/A   Clear
9:55 AM 84.2 °F 30.2 °F 14% 30.00 in 10.0 mi Calm Calm - N/A   Clear
10:15 AM 89.6 °F 21.2 °F 8% 30.00 in 10.0 mi Calm Calm - N/A   Clear
10:35 AM 93.2 °F 21.2 °F 7% 29.99 in 10.0 mi Calm Calm - N/A   Clear
10:55 AM 93.2 °F 14.0 °F 5% 29.99 in 10.0 mi WNW 3.5 mph - N/A   Clear
11:15 AM 96.8 °F 10.4 °F 4% 29.99 in - Calm Calm - N/A   Clear
11:35 AM 96.8 °F 8.6 °F 4% 29.98 in - WNW 4.6 mph - N/A   Clear
11:47 AM 98.6 °F 10.4 °F 4% 29.97 in 25.0 mi Variable 6.9 mph - N/A   Clear
11:55 AM 98.6 °F 10.4 °F 4% 29.97 in 10.0 mi Calm Calm - N/A   Clear
12:15 PM 98.6 °F 10.4 °F 4% 29.96 in 10.0 mi West 8.1 mph - N/A   Clear
12:35 PM 100.4 °F 10.4 °F 4% 29.95 in 10.0 mi SW 5.8 mph - N/A   Clear
12:47 PM 100.4 °F 10.4 °F 4% 29.94 in 25.0 mi Variable 6.9 mph - N/A   Clear
12:55 PM 98.6 °F 10.4 °F 4% 29.95 in 10.0 mi SW 10.4 mph - N/A   Clear
1:15 PM 98.6 °F 10.4 °F 4% 29.94 in 10.0 mi SW 10.4 mph - N/A   Clear
1:35 PM 98.6 °F 10.4 °F 4% 29.94 in 10.0 mi WSW 12.7 mph - N/A   Clear
1:47 PM 98.6 °F 10.4 °F 4% 29.94 in 25.0 mi WSW 11.5 mph 18.4 mph N/A   Clear
1:55 PM 98.6 °F 10.4 °F 4% 29.94 in 10.0 mi WSW 15.0 mph 18.4 mph N/A   Clear
2:15 PM 98.6 °F 10.4 °F 4% 29.93 in 10.0 mi WSW 9.2 mph 19.6 mph N/A   Clear
2:35 PM 98.6 °F 10.4 °F 4% 29.93 in 10.0 mi WSW 12.7 mph - N/A   Clear
2:47 PM 98.6 °F 10.4 °F 4% 29.92 in 25.0 mi WSW 17.3 mph - N/A   Clear
3:15 PM 96.8 °F 10.4 °F 4% 29.92 in 10.0 mi WSW 11.5 mph 17.3 mph N/A   Clear
3:35 PM 96.8 °F 12.2 °F 4% 29.93 in 10.0 mi West 10.4 mph 19.6 mph N/A   Clear
3:47 PM 96.8 °F 17.6 °F 6% 29.92 in 25.0 mi WSW 13.8 mph - N/A   Clear
3:55 PM 95.0 °F 19.4 °F 6% 29.93 in 10.0 mi WNW 13.8 mph - N/A   Clear
4:15 PM 93.2 °F 14.0 °F 5% 29.93 in 10.0 mi West 12.7 mph - N/A   Clear
4:35 PM 93.2 °F 12.2 °F 5% 29.93 in 10.0 mi West 11.5 mph - N/A   Clear
4:55 PM 93.2 °F 19.4 °F 7% 29.93 in 10.0 mi WNW 10.4 mph - N/A   Clear
5:15 PM 91.4 °F 17.6 °F 7% 29.93 in 10.0 mi WNW 10.4 mph - N/A   Clear
5:35 PM 91.4 °F 19.4 °F 7% 29.92 in 10.0 mi West 6.9 mph - N/A   Clear
5:47 PM 91.4 °F 19.4 °F 7% 29.92 in 25.0 mi WNW 8.1 mph - N/A   Clear
5:55 PM 91.4 °F 17.6 °F 7% 29.92 in 10.0 mi SW 6.9 mph - N/A   Clear
6:15 PM 89.6 °F 19.4 °F 8% 29.92 in 10.0 mi WSW 8.1 mph - N/A   Clear
6:35 PM 87.8 °F 17.6 °F 8% 29.92 in 10.0 mi West 3.5 mph - N/A   Clear
6:47 PM 87.8 °F 19.4 °F 8% 29.92 in 25.0 mi West 9.2 mph - N/A   Clear
6:55 PM 86.0 °F 21.2 °F 9% 29.93 in 10.0 mi Calm Calm - N/A   Clear
7:15 PM 84.2 °F 33.8 °F 16% 29.93 in 10.0 mi Calm Calm - N/A   Clear
7:35 PM 80.6 °F 33.8 °F 18% 29.94 in 10.0 mi Calm Calm - N/A   Clear
7:55 PM 78.8 °F 35.6 °F 21% 29.95 in 10.0 mi Calm Calm - N/A   Clear
8:15 PM 78.8 °F 33.8 °F 20% 29.95 in 10.0 mi Calm Calm - N/A   Clear
8:35 PM 77.0 °F 33.8 °F 21% 29.96 in 10.0 mi Calm Calm - N/A   Clear
8:55 PM 78.8 °F 35.6 °F 21% 29.94 in 12.0 mi WSW 4.6 mph - N/A   Clear
9:15 PM 73.4 °F 33.8 °F 23% 29.97 in 10.0 mi Calm Calm - N/A   Clear
9:35 PM 71.6 °F 32.0 °F 23% 29.97 in 10.0 mi Calm Calm - N/A   Clear
9:55 PM 68.0 °F 32.0 °F 26% 29.98 in 10.0 mi Calm Calm - N/A   Clear
10:15 PM 68.0 °F 32.0 °F 26% 29.98 in 10.0 mi Calm Calm - N/A   Clear
10:35 PM 68.0 °F 32.0 °F 26% 29.98 in 10.0 mi Calm Calm - N/A   Clear
10:55 PM 66.2 °F 32.0 °F 28% 29.98 in 10.0 mi Calm Calm - N/A   Clear
11:15 PM 64.4 °F 32.0 °F 30% 29.98 in 10.0 mi Calm Calm - N/A   Clear
11:35 PM 64.4 °F 30.2 °F 28% 29.97 in 10.0 mi Calm Calm - N/A   Clear
11:55 PM 62.6 °F 32.0 °F 32% 29.97 in 10.0 mi Calm Calm - N/A   Clear